Location: Winnipeg
(49.8830°N, 97.1670°W)
Time: 00:58:21
(UTC-06:00)

ISS - Pass Details

Date: 17 November 2024
Orbit: 411 x 421 km, 51.6° (Epoch: 04 December)

Event Time Altitude Azimuth Distance (km) Brightness Sun altitude
Rises 19:15:07 0° 250° (WSW) 2,375 1.3 -24.4°
Reaches altitude 10° 19:17:13 10° 250° (WSW) 1,512 0.0 -24.8°
Enters shadow 19:19:13 33° 248° (WSW) 737 -2.0 -25.1°
